Regional Weather Roundup
Issued by NWS

Home | Current Version | Previous Version | Graphics & Text | Print | Product List | Glossary On
Versions: 1 2 3 4 5 6 7 8 9 10 11 12 13 14 15 16 17 18 19 20 21 22 23 24 25 26 27 28 29 30 31 32 33 34 35 36 37 38 39 40 41 42 43 44 45 46 47 48 49 50
000
ASUS45 KABQ 030810
RWRNM
NEW MEXICO REGIONAL WEATHER ROUNDUP
NATIONAL WEATHER SERVICE ALBUQUERQUE NM
200 AM MDT THU SEP 03 2015

NOTE: "FAIR" MEANS FEW OR NO CLOUDS BELOW 12,000 FEET AGL WITH NO
       SIGNIFICANT WEATHER OR OBSTRUCTIONS TO VISION.

      THIS PRODUCT IS RELEASED AS TWO VERSIONS.  ONE VERSION NEAR
      THE TOP OF THE HOUR CONTAINING PRELIMINARY DATA FROM ALBUQUERQUE
      AND OTHER STATIONS.  A FINAL VERSION WITH ADDITIONAL DATA IS
      ISSUED ABOUT 10 MINUTES AFTER THE HOUR.

NMZ501-503-504-510>518-030900-
NORTHWEST PLATEAU/NORTHCENTRAL MOUNTAINS

CITY           SKY/WX    TMP DP  RH WIND       PRES   REMARKS
FARMINGTON     CLOUDY    66  50  56 SE9       30.16S
LOS ALAMOS     CLOUDY    63  46  54 N5        30.30S
SANTA FE       MOCLDY    64  47  53 CALM      30.24S
TAOS           PTCLDY    54  39  58 E7        30.29S
ANGEL FIRE     FAIR      46  43  88 CALM      30.36F

$$
NMZ402-403-502-505>509-030900-
WESTCENTRAL MOUNTAINS/SOUTHWEST MOUNTAINS

CITY           SKY/WX    TMP DP  RH WIND       PRES   REMARKS
GALLUP         CLOUDY    61  48  62 S6        30.24S
GRANTS         CLOUDY    56  52  86 S5        30.28S
SILVER CITY      N/A     63  54  72 NW10      30.20F

$$
NMZ407-409-411-412-030900-
SOUTHERN DESERTS

CITY           SKY/WX    TMP DP  RH WIND       PRES   REMARKS
LORDSBURG      FAIR      64  59  82 S15       30.14S
DEMING         CLOUDY    71  56  58 SW5       30.12R
LAS CRUCES     MOCLDY    69  53  57 CALM      30.13F
HOLLOMAN AFB   CLOUDY    76  53  44 N12       30.07F
ALAMOGORDO     MOCLDY    77  50  38 NE10      30.09F
T OR C         CLOUDY    67  56  67 NW8       30.12F

$$
NMZ519>523-030900-
CENTRAL VALLEYS/CENTRAL HIGHLANDS

CITY           SKY/WX    TMP DP  RH WIND       PRES   REMARKS
ALBUQUERQUE    CLOUDY    69  49  48 E5        30.18F
DOUBLE EAGLE   CLOUDY    61  51  69 SE3       30.21F
MORIARTY ARPT  CLOUDY    61  46  58 CALM      30.24F
CLINES CORNERS MOCLDY    61  45  55 W12       30.26F
BELEN          FAIR      66  50  57 W3        30.16F
SOCORRO        FAIR      68  54  61 SE7       30.15R

$$
NMZ524>526-539-540-030900-
SOUTHCENTRAL MOUNTAINS

CITY           SKY/WX    TMP DP  RH WIND       PRES   REMARKS
RUIDOSO        CLOUDY    63  48  59 N6        30.29F

$$
NMZ527>531-030900-
NORTHEAST HIGHLANDS/NORTHEAST PLAINS

CITY           SKY/WX    TMP DP  RH WIND       PRES   REMARKS
LAS VEGAS      PTCLDY    59  49  69 SW10      30.23F
RATON          CLEAR     57  54  89 NE7       30.15F
CLAYTON        PTCLDY    70  53  54 SW10      30.03F

$$
NMZ532>537-030900-
EASTCENTRAL PLAINS

CITY           SKY/WX    TMP DP  RH WIND       PRES   REMARKS
TUCUMCARI      PTCLDY    72  50  45 SW9       30.01F
CANNON AFB     MOCLDY    70  53  54 W8        30.09R
CLOVIS AIRPORT MOCLDY    72  52  49 SW7       30.09S

$$
NMZ028-029-538-030900-
SOUTHEAST PLAINS

CITY           SKY/WX    TMP DP  RH WIND       PRES   REMARKS
ROSWELL        CLOUDY    79  52  38 NE5       30.05F
ARTESIA        CLOUDY    77  54  44 SE9       30.03F
CARLSBAD       MOCLDY    77  52  41 SW7       30.01S
HOBBS            N/A     66  54  63 S3        30.06F


$$



USA.gov is the U.S. government's official web portal to all federal, state and local government web resources and services.